TimeCST,TemperatureF,Dew PointF,Humidity,Sea Level PressureIn,VisibilityMPH,Wind Direction,Wind SpeedMPH,Gust SpeedMPH,PrecipitationIn,Events,Conditions,WindDirDegrees,DateUTC
12:11 AM,12.2,8.6,85,29.68,7.0,South,9.2,-,N/A,,Overcast,180,2013-02-05 06:11:00
12:31 AM,14.0,10.4,86,29.67,10.0,South,8.1,-,N/A,,Overcast,180,2013-02-05 06:31:00
12:51 AM,14.0,10.4,86,29.66,10.0,South,8.1,-,N/A,,Overcast,180,2013-02-05 06:51:00
1:12 AM,15.8,10.4,79,29.66,10.0,South,6.9,-,N/A,,Overcast,190,2013-02-05 07:12:00
1:31 AM,15.8,12.2,86,29.65,10.0,South,5.8,-,N/A,,Overcast,190,2013-02-05 07:31:00
1:51 AM,15.8,12.2,86,29.65,10.0,South,6.9,-,N/A,,Overcast,190,2013-02-05 07:51:00
2:12 AM,17.6,12.2,79,29.64,10.0,South,8.1,-,N/A,,Overcast,180,2013-02-05 08:12:00
2:31 AM,17.6,12.2,79,29.64,10.0,South,6.9,-,N/A,,Overcast,190,2013-02-05 08:31:00
2:51 AM,17.6,14.0,86,29.63,7.0,South,8.1,-,N/A,,Overcast,180,2013-02-05 08:51:00
3:11 AM,17.6,14.0,86,29.62,10.0,South,8.1,-,N/A,,Overcast,180,2013-02-05 09:11:00
3:31 AM,17.6,15.8,93,29.62,10.0,SSW,5.8,-,N/A,,Overcast,210,2013-02-05 09:31:00
3:51 AM,17.6,15.8,93,29.62,10.0,SSW,4.6,-,N/A,,Overcast,210,2013-02-05 09:51:00
4:11 AM,17.6,15.8,93,29.62,10.0,SW,3.5,-,N/A,,Overcast,220,2013-02-05 10:11:00
4:31 AM,19.4,15.8,86,29.61,10.0,SSW,4.6,-,N/A,,Overcast,200,2013-02-05 10:31:00
4:51 AM,19.4,15.8,86,29.60,10.0,SSW,3.5,-,N/A,,Overcast,200,2013-02-05 10:51:00
5:11 AM,21.2,17.6,86,29.61,10.0,SW,5.8,-,N/A,,Overcast,230,2013-02-05 11:11:00
5:31 AM,21.2,17.6,86,29.62,10.0,WSW,6.9,-,N/A,,Overcast,240,2013-02-05 11:31:00
5:51 AM,21.2,17.6,86,29.63,10.0,WSW,5.8,-,N/A,,Overcast,240,2013-02-05 11:51:00
6:12 AM,21.2,17.6,86,29.63,10.0,West,5.8,-,N/A,,Overcast,260,2013-02-05 12:12:00
6:31 AM,21.2,19.4,93,29.64,10.0,WSW,8.1,-,N/A,,Overcast,250,2013-02-05 12:31:00
6:51 AM,21.2,19.4,93,29.64,10.0,West,6.9,-,N/A,,Overcast,260,2013-02-05 12:51:00
7:12 AM,23.0,19.4,86,29.65,10.0,West,6.9,-,N/A,,Overcast,260,2013-02-05 13:12:00
7:31 AM,24.8,21.2,86,29.67,10.0,West,9.2,-,N/A,,Overcast,280,2013-02-05 13:31:00
7:51 AM,24.8,21.2,86,29.68,10.0,WNW,9.2,-,N/A,,Overcast,300,2013-02-05 13:51:00
8:12 AM,26.6,21.2,80,29.70,10.0,WNW,9.2,-,N/A,,Overcast,300,2013-02-05 14:12:00
8:31 AM,26.6,21.2,80,29.71,10.0,WNW,9.2,-,N/A,,Overcast,300,2013-02-05 14:31:00
8:51 AM,26.6,21.2,80,29.72,10.0,NW,9.2,16.1,N/A,,Overcast,320,2013-02-05 14:51:00
9:11 AM,24.8,21.2,86,29.74,7.0,NW,11.5,17.3,N/A,,Overcast,320,2013-02-05 15:11:00
9:31 AM,24.8,19.4,80,29.76,7.0,NNW,13.8,-,N/A,,Overcast,340,2013-02-05 15:31:00
9:52 AM,24.8,19.4,80,29.77,7.0,NNW,9.2,-,N/A,,Overcast,340,2013-02-05 15:52:00
10:11 AM,24.8,17.6,74,29.79,10.0,NW,12.7,18.4,N/A,,Overcast,320,2013-02-05 16:11:00
10:32 AM,24.8,15.8,69,29.80,10.0,NW,12.7,-,N/A,,Overcast,310,2013-02-05 16:32:00
10:51 AM,24.8,15.8,69,29.81,10.0,NW,8.1,17.3,N/A,,Overcast,310,2013-02-05 16:51:00
11:11 AM,24.8,15.8,69,29.83,10.0,NW,11.5,-,N/A,,Overcast,320,2013-02-05 17:11:00
11:32 AM,24.8,15.8,69,29.85,10.0,NW,11.5,16.1,N/A,,Overcast,310,2013-02-05 17:32:00
11:51 AM,23.0,15.8,74,29.86,10.0,NW,11.5,16.1,N/A,,Overcast,320,2013-02-05 17:51:00
12:11 PM,24.8,14.0,64,29.85,10.0,NW,12.7,-,N/A,,Scattered Clouds,320,2013-02-05 18:11:00
12:32 PM,24.8,14.0,64,29.86,10.0,NNW,9.2,-,N/A,,Clear,330,2013-02-05 18:32:00
12:51 PM,24.8,12.2,59,29.87,10.0,NW,10.4,-,N/A,,Clear,310,2013-02-05 18:51:00
1:11 PM,23.0,12.2,63,29.88,10.0,NNW,6.9,-,N/A,,Clear,340,2013-02-05 19:11:00
1:32 PM,23.0,10.4,59,29.89,10.0,North,10.4,-,N/A,,Clear,350,2013-02-05 19:32:00
1:51 PM,23.0,10.4,59,29.90,10.0,North,10.4,-,N/A,,Clear,360,2013-02-05 19:51:00
2:11 PM,23.0,10.4,59,29.91,10.0,North,8.1,-,N/A,,Clear,350,2013-02-05 20:11:00
2:32 PM,23.0,8.6,54,29.91,10.0,North,10.4,-,N/A,,Clear,360,2013-02-05 20:32:00
2:51 PM,23.0,8.6,54,29.92,10.0,North,8.1,-,N/A,,Clear,360,2013-02-05 20:51:00
3:12 PM,21.2,8.6,58,29.93,10.0,North,9.2,-,N/A,,Clear,360,2013-02-05 21:12:00
3:31 PM,21.2,8.6,58,29.94,10.0,North,6.9,-,N/A,,Clear,350,2013-02-05 21:31:00
3:51 PM,21.2,6.8,54,29.94,10.0,North,8.1,-,N/A,,Clear,360,2013-02-05 21:51:00
4:11 PM,21.2,6.8,54,29.94,10.0,North,3.5,-,N/A,,Clear,350,2013-02-05 22:11:00
4:31 PM,21.2,8.6,58,29.95,10.0,WNW,8.1,-,N/A,,Clear,290,2013-02-05 22:31:00
5:11 PM,19.4,6.8,58,29.96,10.0,West,4.6,-,N/A,,Clear,280,2013-02-05 23:11:00
5:52 PM,15.8,6.8,68,29.98,10.0,Calm,Calm,-,N/A,,Clear,0,2013-02-05 23:52:00
6:11 PM,15.8,6.8,68,30.00,10.0,West,3.5,-,N/A,,Clear,260,2013-02-06 00:11:00
6:31 PM,12.2,3.2,67,30.00,10.0,Calm,Calm,-,N/A,,Clear,0,2013-02-06 00:31:00
6:51 PM,12.2,5.0,73,30.00,10.0,WNW,3.5,-,N/A,,Clear,300,2013-02-06 00:51:00
7:11 PM,12.2,3.2,67,30.01,10.0,Calm,Calm,-,N/A,,Clear,0,2013-02-06 01:11:00
7:31 PM,12.2,3.2,67,30.01,10.0,Calm,Calm,-,N/A,,Clear,0,2013-02-06 01:31:00
7:51 PM,10.4,3.2,73,30.01,10.0,Calm,Calm,-,N/A,,Clear,0,2013-02-06 01:51:00
8:11 PM,6.8,1.4,79,30.01,10.0,Calm,Calm,-,N/A,,Clear,0,2013-02-06 02:11:00
8:31 PM,3.2,-0.4,85,30.01,10.0,Calm,Calm,-,N/A,,Clear,0,2013-02-06 02:31:00
8:51 PM,1.4,-2.2,85,30.02,10.0,Calm,Calm,-,N/A,,Clear,0,2013-02-06 02:51:00
9:11 PM,1.4,-2.2,85,30.04,10.0,Calm,Calm,-,N/A,,Clear,0,2013-02-06 03:11:00
9:31 PM,-0.4,-2.2,92,30.04,10.0,Calm,Calm,-,N/A,,Clear,0,2013-02-06 03:31:00
9:51 PM,-0.4,-2.2,92,30.04,10.0,Calm,Calm,-,N/A,,Clear,0,2013-02-06 03:51:00
10:11 PM,1.4,-0.4,92,30.03,10.0,Calm,Calm,-,N/A,,Clear,0,2013-02-06 04:11:00
10:31 PM,1.4,-4.0,78,30.03,10.0,Calm,Calm,-,N/A,,Clear,0,2013-02-06 04:31:00
10:51 PM,-0.4,-2.2,92,30.04,10.0,Calm,Calm,-,N/A,,Clear,0,2013-02-06 04:51:00
11:11 PM,-0.4,-5.8,78,30.04,10.0,Calm,Calm,-,N/A,,Clear,0,2013-02-06 05:11:00
11:31 PM,-2.2,-5.8,85,30.04,10.0,Calm,Calm,-,N/A,,Clear,0,2013-02-06 05:31:00
11:52 PM,-0.4,-5.8,78,30.03,10.0,Calm,Calm,-,N/A,,Clear,0,2013-02-06 05:52:00